AVA141 SCCI-SCRM

Flight info

Callsign AVA141
Flight time 1h 37m
Altitude 37000
Route HORNO DCT DRAKE DCT KRILL PAMES1
Aircraft A320/M-SDE3FGHIRWY/LB1

Departure

Time 2026-04-22 21:31
Airport President Carlos Ibáñez International Airport (SCCI)

Arrival

Time 2026-04-22 23:08
Airport Teniente Rodolfo Marsh Martin Airport (SCRM)
Time Latitude Longitude Altitude Speed Heading
2026-04-22 21:22 -53.00455 -70.84364 113 ft 0 kts 178°
2026-04-22 21:23 -53.00445 -70.84365 113 ft 4 kts 176°
2026-04-22 21:23 -53.00418 -70.84368 115 ft 4 kts 173°
2026-04-22 21:24 -53.00391 -70.84372 116 ft 4 kts 182°
2026-04-22 21:24 -53.00369 -70.84363 115 ft 3 kts 236°
2026-04-22 21:24 -53.00367 -70.84359 113 ft 0 kts 240°
2026-04-22 21:26 -53.00379 -70.84408 114 ft 14 kts 256°
2026-04-22 21:27 -53.00382 -70.84593 112 ft 17 kts 268°
2026-04-22 21:27 -53.00397 -70.84792 113 ft 18 kts 269°
2026-04-22 21:27 -53.00400 -70.85014 115 ft 20 kts 269°
2026-04-22 21:27 -53.00465 -70.85197 115 ft 20 kts 211°
2026-04-22 21:28 -53.00591 -70.85309 112 ft 21 kts 208°
2026-04-22 21:28 -53.00720 -70.85420 110 ft 20 kts 197°
2026-04-22 21:28 -53.00829 -70.85318 110 ft 18 kts 139°
2026-04-22 21:28 -53.00912 -70.85198 113 ft 15 kts 139°
2026-04-22 21:29 -53.01021 -70.85038 116 ft 27 kts 139°
2026-04-22 21:29 -53.01150 -70.84854 123 ft 22 kts 139°
2026-04-22 21:29 -53.01250 -70.84708 128 ft 17 kts 139°
2026-04-22 21:29 -53.01318 -70.84583 133 ft 8 kts 135°
2026-04-22 21:30 -53.01318 -70.84608 133 ft 3 kts 311°
2026-04-22 21:30 -53.01289 -70.84651 131 ft 8 kts 319°
2026-04-22 21:30 -53.01221 -70.84750 126 ft 31 kts 319°
2026-04-22 21:30 -53.00867 -70.85263 111 ft 100 kts 319°
2026-04-22 21:31 -53.00206 -70.86214 198 ft 143 kts 319°
2026-04-22 21:31 -52.99467 -70.87272 906 ft 140 kts 319°
2026-04-22 21:31 -52.98746 -70.88318 1720 ft 136 kts 318°
2026-04-22 21:31 -52.98195 -70.89676 2120 ft 162 kts 283°
2026-04-22 21:32 -52.98564 -70.91685 2455 ft 215 kts 241°
2026-04-22 21:32 -52.99981 -70.93137 2873 ft 271 kts 203°
2026-04-22 21:32 -53.01966 -70.92978 3672 ft 305 kts 168°
2026-04-22 21:32 -53.03863 -70.91209 4544 ft 319 kts 147°
2026-04-22 21:33 -53.05571 -70.88826 5568 ft 321 kts 145°
2026-04-22 21:33 -53.07282 -70.86368 6369 ft 328 kts 145°
2026-04-22 21:33 -53.09023 -70.83872 7224 ft 333 kts 145°
2026-04-22 21:33 -53.10834 -70.81451 8080 ft 334 kts 152°
2026-04-22 21:34 -53.12790 -70.79366 8957 ft 334 kts 158°
2026-04-22 21:34 -53.14825 -70.77482 9778 ft 336 kts 160°
2026-04-22 21:34 -53.16919 -70.75640 10338 ft 351 kts 160°
2026-04-22 21:34 -53.19155 -70.73682 10618 ft 375 kts 159°
2026-04-22 21:35 -53.21517 -70.71561 10923 ft 395 kts 158°
2026-04-22 21:35 -53.23942 -70.69298 11570 ft 403 kts 156°
2026-04-22 21:35 -53.26385 -70.66946 12300 ft 408 kts 156°
2026-04-22 21:35 -53.28849 -70.64535 13027 ft 413 kts 156°
2026-04-22 21:36 -53.31339 -70.62091 13669 ft 417 kts 156°
2026-04-22 21:36 -53.33857 -70.59624 14306 ft 421 kts 156°
2026-04-22 21:36 -53.36403 -70.57142 14934 ft 426 kts 156°
2026-04-22 21:36 -53.38976 -70.54645 15574 ft 429 kts 156°
2026-04-22 21:37 -53.41574 -70.52125 16241 ft 434 kts 156°
2026-04-22 21:37 -53.44195 -70.49576 16878 ft 438 kts 156°
2026-04-22 21:37 -53.46842 -70.46998 17504 ft 442 kts 155°
2026-04-22 21:37 -53.49513 -70.44398 18042 ft 446 kts 155°
2026-04-22 21:38 -53.52210 -70.41768 18576 ft 450 kts 155°
2026-04-22 21:38 -53.54931 -70.39106 19098 ft 455 kts 155°
2026-04-22 21:38 -53.57643 -70.36448 19622 ft 459 kts 155°
2026-04-22 21:38 -53.60417 -70.33724 20160 ft 464 kts 155°
2026-04-22 21:39 -53.63216 -70.30973 20661 ft 468 kts 155°
2026-04-22 21:39 -53.66043 -70.28189 21155 ft 474 kts 155°
2026-04-22 21:39 -53.68902 -70.25370 21622 ft 478 kts 155°
2026-04-22 21:39 -53.71782 -70.22526 22094 ft 482 kts 155°
2026-04-22 21:40 -53.74690 -70.19646 22547 ft 486 kts 155°
2026-04-22 21:40 -53.77620 -70.16738 22955 ft 491 kts 154°
2026-04-22 21:40 -53.80572 -70.13803 23357 ft 494 kts 154°
2026-04-22 21:40 -53.83541 -70.10848 23745 ft 496 kts 154°
2026-04-22 21:41 -53.86527 -70.07878 24166 ft 499 kts 155°
2026-04-22 21:41 -53.89526 -70.04889 24541 ft 502 kts 154°
2026-04-22 21:41 -53.92542 -70.01878 24910 ft 504 kts 154°
2026-04-22 21:41 -53.95577 -69.98844 25276 ft 507 kts 154°
2026-04-22 21:42 -53.98623 -69.95795 25640 ft 509 kts 154°
2026-04-22 21:42 -54.01683 -69.92725 25989 ft 512 kts 154°
2026-04-22 21:42 -54.04753 -69.89635 26333 ft 514 kts 154°
2026-04-22 21:42 -54.07836 -69.86523 26675 ft 516 kts 154°
2026-04-22 21:43 -54.10937 -69.83388 26969 ft 521 kts 154°
2026-04-22 21:43 -54.14063 -69.80222 27249 ft 524 kts 154°
2026-04-22 21:43 -54.17206 -69.77031 27556 ft 527 kts 154°
2026-04-22 21:43 -54.20364 -69.73822 27842 ft 529 kts 154°
2026-04-22 21:44 -54.23537 -69.70600 28123 ft 531 kts 154°
2026-04-22 21:44 -54.26724 -69.67361 28387 ft 534 kts 154°
2026-04-22 21:44 -54.29920 -69.64107 28662 ft 536 kts 153°
2026-04-22 21:44 -54.33124 -69.60834 28934 ft 537 kts 153°
2026-04-22 21:45 -54.36338 -69.57546 29158 ft 539 kts 153°
2026-04-22 21:45 -54.39555 -69.54242 29454 ft 539 kts 153°
2026-04-22 21:45 -54.42767 -69.50932 29778 ft 538 kts 153°
2026-04-22 21:45 -54.45969 -69.47622 30067 ft 537 kts 153°
2026-04-22 21:46 -54.49167 -69.44313 30404 ft 536 kts 153°
2026-04-22 21:46 -54.52356 -69.41011 30740 ft 535 kts 153°
2026-04-22 21:46 -54.55539 -69.37713 31081 ft 534 kts 153°
2026-04-22 21:46 -54.58716 -69.34420 31384 ft 533 kts 153°
2026-04-22 21:47 -54.61891 -69.31128 31709 ft 531 kts 153°
2026-04-22 21:47 -54.65051 -69.27845 32082 ft 529 kts 153°
2026-04-22 21:47 -54.68194 -69.24571 32458 ft 527 kts 153°
2026-04-22 21:47 -54.71328 -69.21297 32793 ft 525 kts 153°
2026-04-22 21:48 -54.74451 -69.18026 33146 ft 524 kts 152°
2026-04-22 21:48 -54.77558 -69.14761 33443 ft 522 kts 153°
2026-04-22 21:48 -54.80664 -69.11491 33677 ft 522 kts 153°
2026-04-22 21:48 -54.83766 -69.08224 33912 ft 521 kts 153°
2026-04-22 21:49 -54.86860 -69.04960 34191 ft 520 kts 152°
2026-04-22 21:49 -54.89943 -69.01700 34433 ft 518 kts 152°
2026-04-22 21:49 -54.93019 -68.98446 34686 ft 517 kts 152°
2026-04-22 21:49 -54.96088 -68.95196 34957 ft 515 kts 152°
2026-04-22 21:50 -54.99144 -68.91955 35201 ft 514 kts 152°
2026-04-22 21:50 -55.02194 -68.88715 35473 ft 512 kts 152°
2026-04-22 21:50 -55.05226 -68.85483 35711 ft 511 kts 152°
2026-04-22 21:50 -55.08253 -68.82248 35951 ft 509 kts 152°
2026-04-22 21:51 -55.14286 -68.75781 36056 ft 509 kts 152°
2026-04-22 21:52 -55.23321 -68.66056 36081 ft 508 kts 152°
2026-04-22 21:52 -55.29369 -68.59537 36039 ft 512 kts 152°
2026-04-22 21:53 -55.35430 -68.52963 36038 ft 512 kts 151°
2026-04-22 21:53 -55.41489 -68.46360 36032 ft 512 kts 151°
2026-04-22 21:54 -55.47546 -68.39734 36055 ft 512 kts 151°
2026-04-22 21:54 -55.53596 -68.33084 36013 ft 513 kts 152°
2026-04-22 21:55 -55.59614 -68.26471 36016 ft 513 kts 152°
2026-04-22 21:55 -55.65715 -68.19749 36020 ft 513 kts 152°
2026-04-22 21:56 -55.71730 -68.13070 36065 ft 513 kts 152°
2026-04-22 21:56 -55.77781 -68.06333 36053 ft 513 kts 152°
2026-04-22 21:57 -55.83829 -67.99576 36042 ft 513 kts 152°
2026-04-22 21:57 -55.89874 -67.92805 36038 ft 513 kts 152°
2026-04-22 21:58 -55.95916 -67.86006 36060 ft 513 kts 152°
2026-04-22 21:58 -56.01946 -67.79187 36050 ft 513 kts 152°
2026-04-22 21:59 -56.07972 -67.72359 36042 ft 513 kts 152°
2026-04-22 21:59 -56.13996 -67.65515 36032 ft 513 kts 152°
2026-04-22 22:00 -56.20012 -67.58633 36046 ft 513 kts 151°
2026-04-22 22:00 -56.26026 -67.51723 36029 ft 513 kts 151°
2026-04-22 22:01 -56.31998 -67.44825 36021 ft 513 kts 151°
2026-04-22 22:01 -56.38011 -67.37872 36019 ft 513 kts 151°
2026-04-22 22:02 -56.44018 -67.30892 36026 ft 514 kts 151°
2026-04-22 22:02 -56.50029 -67.23895 36033 ft 514 kts 151°
2026-04-22 22:03 -56.56026 -67.16831 36026 ft 514 kts 151°
2026-04-22 22:03 -56.62005 -67.09704 36019 ft 514 kts 150°
2026-04-22 22:04 -56.67992 -67.02564 36015 ft 514 kts 150°
2026-04-22 22:04 -56.72961 -66.96618 36010 ft 515 kts 150°
2026-04-22 22:05 -56.78941 -66.89446 36011 ft 515 kts 150°
2026-04-22 22:05 -56.84923 -66.82264 36009 ft 515 kts 150°
2026-04-22 22:06 -56.90896 -66.75047 36037 ft 515 kts 150°
2026-04-22 22:06 -56.96868 -66.67799 36020 ft 515 kts 150°
2026-04-22 22:07 -57.02836 -66.60526 36014 ft 515 kts 150°
2026-04-22 22:07 -57.08797 -66.53223 36009 ft 515 kts 150°
2026-04-22 22:08 -57.14752 -66.45904 36028 ft 515 kts 150°
2026-04-22 22:08 -57.20699 -66.38576 36014 ft 514 kts 150°
2026-04-22 22:09 -57.26643 -66.31232 36007 ft 514 kts 150°
2026-04-22 22:09 -57.32582 -66.23869 36005 ft 514 kts 150°
2026-04-22 22:10 -57.38510 -66.16466 36015 ft 514 kts 150°
2026-04-22 22:10 -57.44424 -66.09041 36020 ft 513 kts 150°
2026-04-22 22:11 -57.50336 -66.01609 36014 ft 513 kts 150°
2026-04-22 22:11 -57.56247 -65.94185 36002 ft 512 kts 150°
2026-04-22 22:12 -57.62141 -65.86709 36017 ft 512 kts 150°
2026-04-22 22:12 -57.68031 -65.79216 36009 ft 513 kts 150°
2026-04-22 22:13 -57.73921 -65.71693 36003 ft 513 kts 150°
2026-04-22 22:13 -57.79803 -65.64140 35999 ft 513 kts 149°
2026-04-22 22:14 -57.85682 -65.56563 36013 ft 513 kts 150°
2026-04-22 22:14 -57.91563 -65.48982 36003 ft 513 kts 149°
2026-04-22 22:15 -57.97403 -65.41407 35995 ft 513 kts 149°
2026-04-22 22:15 -58.03273 -65.33755 35994 ft 513 kts 149°
2026-04-22 22:16 -58.09138 -65.26067 35989 ft 512 kts 149°
2026-04-22 22:16 -58.14985 -65.18375 35986 ft 512 kts 149°
2026-04-22 22:17 -58.20837 -65.10668 35988 ft 512 kts 149°
2026-04-22 22:17 -58.26680 -65.02929 35987 ft 512 kts 149°
2026-04-22 22:18 -58.32518 -64.95164 36013 ft 511 kts 149°
2026-04-22 22:18 -58.38338 -64.87393 36016 ft 511 kts 149°
2026-04-22 22:19 -58.44147 -64.79610 36008 ft 510 kts 149°
2026-04-22 22:19 -58.49941 -64.71797 36002 ft 510 kts 149°
2026-04-22 22:20 -58.55726 -64.63974 36023 ft 508 kts 149°
2026-04-22 22:20 -58.61492 -64.56156 36015 ft 507 kts 149°
2026-04-22 22:21 -58.67230 -64.48311 36015 ft 506 kts 149°
2026-04-22 22:21 -58.72959 -64.40461 36008 ft 505 kts 149°
2026-04-22 22:22 -58.78680 -64.32603 36033 ft 505 kts 148°
2026-04-22 22:22 -58.84395 -64.24740 36012 ft 504 kts 149°
2026-04-22 22:23 -58.90098 -64.16847 36004 ft 504 kts 148°
2026-04-22 22:23 -58.95792 -64.08917 36003 ft 504 kts 148°
2026-04-22 22:24 -59.01479 -64.00965 36006 ft 504 kts 148°
2026-04-22 22:24 -59.07161 -63.92978 36005 ft 504 kts 148°
2026-04-22 22:25 -59.12842 -63.84966 36002 ft 504 kts 148°
2026-04-22 22:25 -59.18489 -63.76982 36003 ft 505 kts 148°
2026-04-22 22:26 -59.24168 -63.68902 36020 ft 505 kts 148°
2026-04-22 22:26 -59.29825 -63.60811 35989 ft 503 kts 148°
2026-04-22 22:27 -59.35476 -63.52723 35991 ft 503 kts 148°
2026-04-22 22:27 -59.41138 -63.44647 35997 ft 503 kts 148°
2026-04-22 22:28 -59.46797 -63.36544 35993 ft 504 kts 148°
2026-04-22 22:28 -59.52447 -63.28403 36013 ft 503 kts 147°
2026-04-22 22:29 -59.58088 -63.20227 36003 ft 503 kts 147°
2026-04-22 22:29 -59.63714 -63.12029 35999 ft 502 kts 147°
2026-04-22 22:30 -59.69338 -63.03824 35999 ft 502 kts 147°
2026-04-22 22:30 -59.74953 -62.95591 36018 ft 502 kts 147°
2026-04-22 22:31 -59.80547 -62.87317 36003 ft 501 kts 147°
2026-04-22 22:31 -59.86132 -62.79042 35994 ft 500 kts 147°
2026-04-22 22:32 -59.91712 -62.70763 35991 ft 500 kts 147°
2026-04-22 22:32 -59.97283 -62.62463 35998 ft 499 kts 146°
2026-04-22 22:33 -60.02838 -62.54148 35976 ft 499 kts 146°
2026-04-22 22:33 -60.08375 -62.45787 35979 ft 498 kts 146°
2026-04-22 22:34 -60.13905 -62.37418 35981 ft 498 kts 146°
2026-04-22 22:34 -60.19440 -62.29045 35977 ft 498 kts 146°
2026-04-22 22:35 -60.24958 -62.20620 35980 ft 498 kts 146°
2026-04-22 22:35 -60.30464 -62.12169 35970 ft 498 kts 146°
2026-04-22 22:36 -60.35974 -62.03704 35954 ft 498 kts 146°
2026-04-22 22:36 -60.41479 -61.95190 35953 ft 498 kts 145°
2026-04-22 22:37 -60.46983 -61.86636 35975 ft 499 kts 145°
2026-04-22 22:37 -60.52485 -61.78062 35960 ft 499 kts 145°
2026-04-22 22:38 -60.57953 -61.69517 35958 ft 499 kts 145°
2026-04-22 22:38 -60.63450 -61.60867 35953 ft 499 kts 145°
2026-04-22 22:39 -60.68943 -61.52194 35954 ft 500 kts 145°
2026-04-22 22:39 -60.74433 -61.43470 35960 ft 500 kts 144°
2026-04-22 22:40 -60.79900 -61.34671 35945 ft 500 kts 144°
2026-04-22 22:40 -60.85390 -61.25930 35943 ft 500 kts 144°
2026-04-22 22:41 -60.90883 -61.17168 35931 ft 500 kts 144°
2026-04-22 22:41 -60.96364 -61.08342 35951 ft 500 kts 144°
2026-04-22 22:42 -61.01821 -60.99454 35927 ft 500 kts 143°
2026-04-22 22:42 -61.07266 -60.90551 35829 ft 499 kts 144°
2026-04-22 22:42 -61.09985 -60.86101 35564 ft 498 kts 144°
2026-04-22 22:43 -61.12696 -60.81657 35315 ft 497 kts 144°
2026-04-22 22:43 -61.15406 -60.77208 35071 ft 497 kts 144°
2026-04-22 22:43 -61.18111 -60.72751 34829 ft 497 kts 143°
2026-04-22 22:43 -61.20817 -60.68300 34586 ft 497 kts 143°
2026-04-22 22:44 -61.23524 -60.63841 34350 ft 496 kts 143°
2026-04-22 22:44 -61.26219 -60.59375 34115 ft 496 kts 143°
2026-04-22 22:44 -61.28914 -60.54889 33872 ft 496 kts 143°
2026-04-22 22:44 -61.31605 -60.50388 33659 ft 496 kts 143°
2026-04-22 22:45 -61.34291 -60.45882 33429 ft 496 kts 143°
2026-04-22 22:45 -61.36972 -60.41371 33200 ft 496 kts 143°
2026-04-22 22:45 -61.39651 -60.36846 32964 ft 496 kts 143°
2026-04-22 22:45 -61.42331 -60.32313 32713 ft 495 kts 143°
2026-04-22 22:46 -61.45006 -60.27785 32444 ft 495 kts 143°
2026-04-22 22:46 -61.47683 -60.23250 32010 ft 495 kts 143°
2026-04-22 22:46 -61.50366 -60.18697 30755 ft 496 kts 143°
2026-04-22 22:46 -61.53017 -60.14186 29804 ft 486 kts 143°
2026-04-22 22:47 -61.55622 -60.09742 28626 ft 481 kts 143°
2026-04-22 22:47 -61.58197 -60.05331 27502 ft 473 kts 143°
2026-04-22 22:47 -61.60694 -60.01032 26903 ft 455 kts 143°
2026-04-22 22:47 -61.63126 -59.96841 26208 ft 451 kts 143°
2026-04-22 22:48 -61.65541 -59.92687 25537 ft 447 kts 143°
2026-04-22 22:48 -61.67942 -59.88552 24862 ft 445 kts 143°
2026-04-22 22:48 -61.70336 -59.84420 24203 ft 444 kts 143°
2026-04-22 22:48 -61.72713 -59.80307 23554 ft 442 kts 142°
2026-04-22 22:49 -61.75082 -59.76193 22901 ft 440 kts 142°
2026-04-22 22:49 -61.77438 -59.72095 22226 ft 438 kts 143°
2026-04-22 22:49 -61.78992 -59.69387 21770 ft 436 kts 142°
2026-04-22 22:49 -61.81317 -59.65322 21180 ft 431 kts 142°
2026-04-22 22:50 -61.83613 -59.61292 20603 ft 428 kts 143°
2026-04-22 22:50 -61.85894 -59.57282 20064 ft 424 kts 142°
2026-04-22 22:50 -61.89114 -59.52832 19362 ft 412 kts 161°
2026-04-22 22:50 -61.91829 -59.51221 18682 ft 404 kts 178°
2026-04-22 22:51 -61.93717 -59.51079 18208 ft 398 kts 190°
2026-04-22 22:51 -61.96379 -59.52141 17713 ft 384 kts 204°
2026-04-22 22:51 -61.98742 -59.54481 17363 ft 365 kts 219°
2026-04-22 22:51 -62.00829 -59.57423 17251 ft 361 kts 215°
2026-04-22 22:52 -62.03265 -59.59011 16812 ft 376 kts 190°
2026-04-22 22:52 -62.05876 -59.58245 16316 ft 387 kts 163°
2026-04-22 22:52 -62.08163 -59.55165 15858 ft 395 kts 136°
2026-04-22 22:52 -62.09670 -59.50305 15503 ft 395 kts 109°
2026-04-22 22:53 -62.10213 -59.44687 14994 ft 390 kts 90°
2026-04-22 22:53 -62.10344 -59.38916 14464 ft 389 kts 89°
2026-04-22 22:53 -62.10467 -59.33145 13932 ft 389 kts 89°
2026-04-22 22:53 -62.10589 -59.27383 13388 ft 389 kts 89°
2026-04-22 22:54 -62.10885 -59.21635 12838 ft 391 kts 97°
2026-04-22 22:54 -62.11451 -59.15931 12218 ft 394 kts 102°
2026-04-22 22:54 -62.12179 -59.10295 11629 ft 393 kts 104°
2026-04-22 22:54 -62.12963 -59.04770 11040 ft 392 kts 105°
2026-04-22 22:55 -62.13750 -58.99237 10176 ft 381 kts 107°
2026-04-22 22:55 -62.14474 -58.93946 10039 ft 361 kts 106°
2026-04-22 22:55 -62.15726 -58.84080 9782 ft 328 kts 104°
2026-04-22 22:56 -62.16282 -58.79489 10050 ft 315 kts 103°
2026-04-22 22:56 -62.16820 -58.75015 9957 ft 305 kts 101°
2026-04-22 22:56 -62.17342 -58.70657 9647 ft 303 kts 101°
2026-04-22 22:56 -62.17865 -58.66241 9160 ft 308 kts 101°
2026-04-22 22:57 -62.18394 -58.61780 8722 ft 311 kts 101°
2026-04-22 22:57 -62.18933 -58.57273 8279 ft 314 kts 101°
2026-04-22 22:57 -62.19588 -58.52864 7809 ft 309 kts 116°
2026-04-22 22:57 -62.20818 -58.49239 7452 ft 295 kts 140°
2026-04-22 22:58 -62.22461 -58.46850 7083 ft 277 kts 164°
2026-04-22 22:58 -62.24254 -58.45787 6636 ft 261 kts 185°
2026-04-22 22:58 -62.26000 -58.45927 6190 ft 243 kts 204°
2026-04-22 22:58 -62.27534 -58.47033 5778 ft 224 kts 221°
2026-04-22 22:59 -62.28851 -58.48646 5381 ft 212 kts 226°
2026-04-22 22:59 -62.29824 -58.50582 5026 ft 172 kts 253°
2026-04-22 22:59 -62.30210 -58.52726 4792 ft 140 kts 273°
2026-04-22 22:59 -62.30210 -58.54605 4614 ft 112 kts 288°
2026-04-22 23:00 -62.30000 -58.56039 4456 ft 90 kts 299°
2026-04-22 23:00 -62.29719 -58.57118 4295 ft 80 kts 302°
2026-04-22 23:00 -62.29380 -58.58379 4239 ft 112 kts 302°
2026-04-22 23:00 -62.28977 -58.59885 4065 ft 119 kts 301°
2026-04-22 23:01 -62.28565 -58.61430 3896 ft 119 kts 302°
2026-04-22 23:01 -62.28171 -58.62917 3729 ft 107 kts 302°
2026-04-22 23:01 -62.27832 -58.64197 3594 ft 94 kts 302°
2026-04-22 23:01 -62.27510 -58.65403 3469 ft 92 kts 302°
2026-04-22 23:02 -62.27192 -58.66593 3333 ft 92 kts 302°
2026-04-22 23:02 -62.26869 -58.67795 3266 ft 94 kts 303°
2026-04-22 23:02 -62.26544 -58.69003 3115 ft 94 kts 303°
2026-04-22 23:02 -62.26218 -58.70212 2974 ft 93 kts 303°
2026-04-22 23:03 -62.25891 -58.71427 2839 ft 95 kts 303°
2026-04-22 23:03 -62.25565 -58.72641 2703 ft 93 kts 303°
2026-04-22 23:03 -62.25243 -58.73844 2582 ft 93 kts 303°
2026-04-22 23:03 -62.24922 -58.75038 2446 ft 92 kts 303°
2026-04-22 23:04 -62.24603 -58.76228 2316 ft 92 kts 303°
2026-04-22 23:04 -62.24285 -58.77418 2191 ft 92 kts 303°
2026-04-22 23:04 -62.23968 -58.78607 2067 ft 92 kts 303°
2026-04-22 23:04 -62.23651 -58.79794 1938 ft 92 kts 303°
2026-04-22 23:05 -62.23334 -58.80975 1812 ft 93 kts 303°
2026-04-22 23:05 -62.23011 -58.82181 1689 ft 94 kts 304°
2026-04-22 23:05 -62.22700 -58.83420 1553 ft 95 kts 302°
2026-04-22 23:05 -62.22398 -58.84684 1430 ft 96 kts 302°
2026-04-22 23:06 -62.22097 -58.85950 1303 ft 95 kts 303°
2026-04-22 23:06 -62.21795 -58.87220 1161 ft 96 kts 303°
2026-04-22 23:06 -62.21489 -58.88507 1026 ft 99 kts 304°
2026-04-22 23:06 -62.21177 -58.89856 872 ft 103 kts 303°
2026-04-22 23:07 -62.20856 -58.91257 769 ft 104 kts 304°
2026-04-22 23:07 -62.20537 -58.92620 645 ft 101 kts 306°
2026-04-22 23:07 -62.20209 -58.93992 499 ft 104 kts 305°
2026-04-22 23:07 -62.19863 -58.95422 359 ft 111 kts 305°
2026-04-22 23:08 -62.19524 -58.96871 237 ft 105 kts 304°
2026-04-22 23:08 -62.19188 -58.98234 137 ft 90 kts 300°
2026-04-22 23:08 -62.19037 -58.98848 134 ft 25 kts 297°
2026-04-22 23:08 -62.18973 -58.99110 137 ft 15 kts 296°
2026-04-22 23:09 -62.18922 -58.99314 137 ft 18 kts 297°
2026-04-22 23:09 -62.18864 -58.99554 136 ft 17 kts 296°
2026-04-22 23:09 -62.18826 -58.99686 135 ft 4 kts 31°
2026-04-22 23:09 -62.18849 -58.99604 135 ft 20 kts 128°
2026-04-22 23:10 -62.18935 -58.99265 137 ft 27 kts 116°
2026-04-22 23:10 -62.19022 -58.98913 134 ft 26 kts 117°
2026-04-22 23:10 -62.19095 -58.98617 132 ft 14 kts 117°
2026-04-22 23:10 -62.19158 -58.98362 134 ft 31 kts 117°
2026-04-22 23:11 -62.19237 -58.98108 136 ft 17 kts 123°
2026-04-22 23:11 -62.19283 -58.97862 135 ft 18 kts 118°
2026-04-22 23:11 -62.19341 -58.97664 133 ft 9 kts 88°
2026-04-22 23:11 -62.19322 -58.97663 133 ft 3 kts 320°
2026-04-22 23:12 -62.19309 -58.97747 133 ft 6 kts 291°
2026-04-22 23:12 -62.19268 -58.97916 135 ft 24 kts 298°
2026-04-22 23:12 -62.19183 -58.98262 135 ft 25 kts 298°
2026-04-22 23:12 -62.19107 -58.98570 133 ft 22 kts 295°
2026-04-22 23:13 -62.19097 -58.98696 127 ft 7 kts 265°
2026-04-22 23:13 -62.19145 -58.98809 121 ft 11 kts 202°
2026-04-22 23:13 -62.19206 -58.98845 121 ft 3 kts 206°
2026-04-22 23:13 -62.19210 -58.98850 122 ft 0 kts 208°